Regional Weather Roundup
Issued by NWS Goodland, KS

Home | Current Version | Previous Version | Text Only | Print | Product List | Glossary On
Versions: 1 2 3 4 5 6 7 8 9 10 11 12 13 14 15 16 17 18 19 20 21 22 23 24 25 26 27 28 29 30 31 32 33 34 35 36 37 38 39 40 41 42 43 44 45 46 47 48 49 50
915
ASUS43 KGLD 300859
RWRGLD

GOODLAND FORECAST AREA HOURLY WEATHER ROUNDUP
NATIONAL WEATHER SERVICE GOODLAND KS
300 AM MDT THU MAR 30 2017

...OFFICIAL OBSERVATIONS...

CITY           SKY/WX    TMP DP  RH WIND       PRES   REMARKS
GOODLAND KS    CLOUDY    35  34  96 N10       29.84F
HILL CITY KS   CLOUDY    41  38  89 N14       29.80F
IMPERIAL NEB   CLOUDY    36  34  92 N12       29.87F
MCCOOK NEB     CLOUDY    39  36  89 N13       29.83F
AKRON CO       CLEAR     33  30  88 W8        29.86F
BURLINGTON CO  CLEAR     36  33  89 NW14      29.85F
LIMON CO       CLEAR     30  29  96 N7        29.89F
$$

...UNOFFICIAL OBSERVATIONS...

CITY           SKY/WX    TMP DP  RH WIND       PRES   REMARKS
NORTON KS      CLOUDY    37  32  81 N20G25    29.79F
SHARON SPRINGS   N/A     34  31  90 CALM        N/A
TRENTON NEB      N/A     38  32  79 N10         N/A
YUMA CO        FAIR      32  30  93 W9        29.86F
$$




USA.gov is the U.S. government's official web portal to all federal, state and local government web resources and services.